Home   Weather   Schorndorf   Past weeks

Flag for Germany Past Weather in Schorndorf, Baden-Württemberg, Germany — Yesterday and Last 2 Weeks

Now
41 °F

Sunny.


Feels Like: 35 °F
Forecast: 22 / 36 °F
Wind: 10 mph from Northeast

Location: Stuttgart-Echterdingen

Current Time: Dec 3, 2016 at 3:01:35 pm

Latest Report: Dec 3, 2016 at 2:20 pm


Visibility: 10 mi

Pressure: 30.15 "Hg

Humidity: 49%

Dew Point: 23 °F

Location of SchorndorfLocation

Past Weather in Schorndorf — Graph

°F

Schorndorf Temperature Yesterday

Maximum temperature yesterday: 43 °F (at 12:50 pm)
Minimum temperature yesterday: 36 °F (at 12:20 am)
Average temperature yesterday: 39 °F

High & Low Weather Summary for the Past Weeks

 TemperatureHumidityPressure
High61 °F (Nov 20, 1:50 pm)100% (Nov 20, 12:50 am)30.51 "Hg (Nov 20, 12:50 am)
Low19 °F (Nov 30, 5:20 am)31% (Dec 1, 1:50 pm)29.59 "Hg (Nov 21, 12:20 pm)
Average40 °F83%30.05 "Hg
* Reported Nov 18 1:20 pm — Dec 3 1:50 pm, Schorndorf, Weather by CustomWeather, © 2016

Note: Actual official high and low records may vary slightly from our data, if they occured in-between our weather recording intervals... More about our weather records

Advertising

Schorndorf Weather History for the Previous 24 Hours

Scroll right to see more
 ConditionsComfort  
Time TempWeatherWind HumidityBarometerVisibility
1:50 pm
Sat, Dec 3
39 °FSunny.8 mph52%30.15 "Hg10 mi
1:20 pm39 °FPassing clouds.7 mph52%30.18 "HgN/A
12:50 pm39 °FSunny.9 mph48%30.18 "Hg10 mi
12:20 pm39 °FSunny.9 mph52%30.18 "Hg10 mi
11:50 am37 °FSunny.9 mph56%30.18 "Hg10 mi
11:20 am37 °FSunny.10 mph60%30.18 "Hg10 mi
10:50 am36 °FSunny.10 mph70%30.18 "Hg10 mi
10:20 am36 °FSunny.10 mph75%30.21 "Hg10 mi
9:20 am32 °FSunny.7 mph87%30.18 "Hg10 mi
8:50 am32 °FSunny.7 mph87%30.18 "Hg10 mi
8:20 am30 °FSunny.9 mph86%30.18 "Hg10 mi
7:50 am30 °FClear.7 mph86%30.15 "Hg10 mi
7:20 am30 °FPassing clouds.7 mph93%30.15 "HgN/A
6:50 am32 °FPassing clouds.8 mph87%30.15 "HgN/A
6:20 am34 °FPassing clouds.6 mph87%30.15 "HgN/A
5:50 am36 °FPartly cloudy.8 mph87%30.15 "HgN/A
5:20 am36 °FPassing clouds.7 mph87%30.15 "HgN/A
4:50 am36 °FPassing clouds.7 mph93%30.15 "HgN/A
4:20 am34 °FPassing clouds.8 mph93%30.15 "HgN/A
3:50 am34 °FPartly cloudy.3 mph93%30.15 "HgN/A
3:20 am36 °FPartly cloudy.5 mph93%30.15 "HgN/A
2:20 am37 °FPartly cloudy.7 mph93%30.15 "HgN/A
1:50 am37 °FLight rain. Passing clouds.8 mph100%30.15 "Hg4 mi
1:20 am39 °FLight rain. Fog.7 mph93%30.15 "Hg3 mi
12:50 am39 °FFog.6 mph93%30.15 "Hg3 mi
12:20 am39 °FPassing clouds.5 mph93%30.15 "Hg4 mi
11:50 pm
Fri, Dec 2
39 °FPassing clouds.5 mph93%30.15 "Hg4 mi
11:20 pm39 °FPassing clouds.3 mph93%30.15 "Hg4 mi
10:50 pm39 °FPassing clouds.3 mph93%30.15 "Hg4 mi
10:20 pm39 °FPassing clouds.5 mph93%30.15 "Hg4 mi
9:50 pm39 °FPartly cloudy.1 mph93%30.15 "Hg4 mi
9:20 pm39 °FPartly cloudy.1 mph93%30.15 "Hg6 mi
8:50 pm39 °FPassing clouds.3 mph93%30.15 "HgN/A
8:20 pm41 °FPassing clouds.3 mph93%30.15 "HgN/A
7:50 pm39 °FPassing clouds.3 mph100%30.15 "HgN/A
7:20 pm41 °FPassing clouds.2 mph93%30.15 "HgN/A
6:50 pm41 °FPassing clouds.5 mph93%30.15 "HgN/A
6:20 pm41 °FLight rain. Passing clouds.1 mph87%30.15 "HgN/A
5:50 pm41 °FLight rain. Passing clouds.No wind87%30.15 "HgN/A
5:20 pm41 °FLight rain. Passing clouds.3 mph87%30.15 "HgN/A
4:50 pm41 °FLight rain. Passing clouds.6 mph87%30.15 "HgN/A
4:20 pm41 °FLight rain. Partly sunny.6 mph87%30.15 "HgN/A
3:50 pm43 °FLight rain. Partly sunny.6 mph81%30.15 "HgN/A
3:20 pm43 °FLight rain. Partly sunny.7 mph81%30.15 "HgN/A
Weather by CustomWeather, © 2016

See weather overviewHow to use our weather pages